Showing default

SHARJAHSAT-1, 55104

Orbit data source: Space-Track

SHARJAHSAT-1, 55104 is a payload satellite owned by Sharjah SAAST (AE) in SSO that was launched on Tue, 03 Jan 2023 UTC via an FALCON 9 launch vehicle from the Air Force Eastern Test Range (AFETR). Payload-class satellites include a variety of spacecraft equipped with specific instruments for various scientific and technological missions. These include communications satellites like Starlink; space stations such as the ISS; scientific satellites like the Hubble; Earth observation satellites from companies like Planet Labs, Umbra, and HawkEye 360; GPS; miniature CubeSats for education and research; and military/defense satellites.

Loading next visibility...
Identifier
55104, 2023-001CZ
Orbit
SSO
Country
Flag of AEAE / UAE
Related business
Manufacturer
Sharjah SAAST
Mission
Operational Amateur Technology
Bus & Motor
CUBESAT 3U, Unknown motor
Mass
4 kg wet, 4 kg dry
Launch date (UTC)
2023-01-03 (4 years ago)
Launch vehicle
FALCON 9
Launch site
Air Force Eastern Test Range (AFETR)
Object type
Payload
Rocket body
Debris
Shape & HBR
Box, 0.2 m
Radar Cross Section
0.035 m², Medium (>0.1 m² and < 1m²)

Expand to show TLE details & history
Last TLE update: 19 hours ago

TLE from 19 hours ago
0 SHARJAHSAT-1
1 55104U 23001CZ  26206.59495817  .00019866  00000-0  35000-3 0  9996
2 55104  97.3144 275.9256 0003790 338.5422  21.5670 15.50458677198442
Epoch: 2026-07-25T14:16Z
TLE epoch observation values (Epoch: 2026-07-25T14:16:44.385Z)
Latitude
-0.00009°
Longitude
118.43569°
Altitude
416.125 km
Speed
7.663 km/s
True Right ascension
18h 23m 42s
True Declination
0° 00' 00"
Sunlit
Object was in full shadow at epoch
Visualization orbit readout
Latitude
Unknown
Longitude
Unknown
Altitude
Unknown
Speed
Unknown
Apparent Right ascension
Unknown
Apparent Declination
Unknown
Sunlit
N/A
Visualization observer readout
Local Sidereal Time
22:11:40
Azimuth
Unknown
Elevation
Unknown
Doppler factor
Unknown
Orbital elements
Apogee altitude
414.881 km
Perigee altitude
409.734 km
Semi-major axis
6,790.444 km
Eccentricity
0.00038
Inclination
97.3144°
RAAN
275.9256°
Arg. of periapsis
338.5422°
True anomaly
21.58297°
Mean anomaly
21.567°
Eccentric anomaly
21.57499°
Mean motion
3.87879 °/min
Orbital period
92.81 mins
BSTAR
0.00035
Loading maneuver chart data...
Computing Atmospheric mass density...

Documentation

Showing up to 5 results
|